Nantucket, Massachusetts, United States (02554)
Lat: 41.28N, Lon: 70.1W
Wx Zone: MAZ024
Local Info
Past Weather Observations for Today

NOTE: This archive is for the closest National Weather Service station to Nantucket. Information may differ from the station used for current weather conditions.

Click here for Long-term Archive

Time Weather Temperature Dewpoint Humidity Pressure Winds Precip Visibility
18:53
Partly Cloudy
57°F / 14°C 55°F / 13°C 94% 29.92 in
(1013 mb)
SE 8.1 mph
(SE 13 kph)
- 9SM
17:53
Partly Cloudy
57°F / 14°C 57°F / 14°C 100% 29.92 in
(1013 mb)
SE 8.1 mph
(SE 13 kph)
- 9SM
16:53
Partly Cloudy
59°F / 15°C 55°F / 13°C 88% 29.92 in
(1013 mb)
ESE 13.8 mph
(ESE 22 kph)
- 10SM
16:36
Mostly Cloudy
59°F / 15°C 55°F / 13°C 88% 29.92 in
(1013 mb)
ESE 13.8 mph
(ESE 22 kph)
- 10SM
15:53
Mostly Cloudy
59°F / 15°C 55°F / 13°C 88% 29.92 in
(1013 mb)
SE 12.7 mph
(SE 20 kph)
- 10SM
14:53
Mostly Cloudy
59°F / 15°C 55°F / 13°C 88% 29.92 in
(1013 mb)
ESE 11.5 mph
(ESE 19 kph)
- 10SM
13:53
Overcast
59°F / 15°C 55°F / 13°C 88% 29.92 in
(1013 mb)
SE 15 mph
(SE 24 kph)
- 10SM
12:53
Overcast
61°F / 16°C 55°F / 13°C 83% 29.92 in
(1013 mb)
SE 13.8 mph
(SE 22 kph)
- 10SM
12:05
Partly Cloudy
61°F / 16°C 55°F / 13°C 83% 29.92 in
(1013 mb)
ESE 16.1 mph
(ESE 26 kph)
- 10SM
11:53
Mostly Cloudy
61°F / 16°C 55°F / 13°C 83% 29.92 in
(1013 mb)
ESE 16.1 mph
(ESE 26 kph)
- 10SM
10:53
Overcast
57°F / 14°C 55°F / 13°C 94% 29.95 in
(1014 mb)
E 15 mph
(E 24 kph)
- 10SM
09:53
Mostly Cloudy
57°F / 14°C 55°F / 13°C 94% 29.98 in
(1015 mb)
E 13.8 mph
(E 22 kph)
0.05 in
(1.27 mm)
10SM
08:53
Overcast
Light Rain
57°F / 14°C 55°F / 13°C 94% 30.01 in
(1016 mb)
SE 16.1 mph
(SE 26 kph)
0.08 in
(2.03 mm)
4SM
07:53
Overcast
Light Rain
57°F / 14°C 55°F / 13°C 94% 30.01 in
(1016 mb)
SE 18.4 mph
(SE 30 kph)
0.09 in
(2.29 mm)
5SM
06:53
Overcast
Light Rain
57°F / 14°C 55°F / 13°C 94% 30.01 in
(1016 mb)
SSE 12.7 mph
(SSE 20 kph)
0.00 in
(0.00 mm)
7SM
05:53
Overcast
57°F / 14°C 54°F / 12°C 88% 30.01 in
(1016 mb)
SE 12.7 mph
(SE 20 kph)
- 10SM
04:53
Overcast
55°F / 13°C 54°F / 12°C 94% 29.98 in
(1015 mb)
ESE 9.2 mph
(ESE 15 kph)
- 10SM
03:53
Mostly Cloudy
55°F / 13°C 52°F / 11°C 88% 30.01 in
(1016 mb)
E 8.1 mph
(E 13 kph)
- 10SM
02:53
Partly Cloudy
54°F / 12°C 50°F / 10°C 88% 30.01 in
(1016 mb)
E 6.9 mph
(E 11 kph)
0.00 in
(0.00 mm)
10SM
01:53
Overcast
Light Rain
57°F / 14°C 52°F / 11°C 82% 30.04 in
(1017 mb)
SSE 5.8 mph
(SSE 9 kph)
0.00 in
(0.00 mm)
10SM
00:53
Overcast
59°F / 15°C 50°F / 10°C 72% 30.04 in
(1017 mb)
S 6.9 mph
(S 11 kph)
- 10SM
Time Weather Temperature Dewpoint Humidity Pressure Winds Precip Visibility


Weather for websites

WeatherForYou.com, LLC is not responsible for any damages or problems caused by this service. Current weather conditions are obtained from the closest station including government and personal stations which may have varying degrees of accuracy. Weather forecasts are derived from the NOAA NDFD. Like all things, this site belongs to Jesus Christ... He just trusts me to maintain it. If you have any questions or comments email webmaster@weatherforyou.com

Copyright © 2014, WeatherForYou.com LLC. All rights reserved.